Humidity-temperature Sensor

Selected Measurement Type: Air Temperature

 
Air Temperature [°C]     6 entries per hour
Showing data from 9/30/2020 (00:00:00 Z) to 9/29/2020 (00:01:00 Z)
Previous Next [ Day | 3-Days | 7-Days ]
First Last
Prev [ Day | 3-Days | 7-Days ] Next
First Last

Start Time:     :
End Time:     :     
Time (in GMT) :00 :50 :40 :30 :20 :10
Previous Next [ Day | 3-Days | 7-Days ]
First Last
Prev [ Day | 3-Days | 7-Days ] Next
First Last


123 => good data
MM => data is determined as missing
-- => data not received/configured
Back to Top Back to Top
9/30/2020 00:00 to 23:10 20.65 20.73 20.82 20.73 20.72 20.73
9/29/2020 23:00 to 22:10 20.77 20.88 20.74 20.88 21.01 20.81
9/29/2020 22:00 to 21:10 20.79 20.75 20.77 20.49 20.20 20.64
9/29/2020 21:00 to 20:10 20.65 20.81 20.70 20.79 20.60 20.80
9/29/2020 20:00 to 19:10 20.63 20.54 20.14 20.61 20.66 20.51
9/29/2020 19:00 to 18:10 20.42 20.37 20.53 20.54 20.61 20.51
9/29/2020 18:00 to 17:10 20.46 20.48 20.56 20.57 20.39 20.64
9/29/2020 17:00 to 16:10 20.70 20.44 20.33 20.51 20.34 20.14
9/29/2020 16:00 to 15:10 20.28 19.95 20.20 19.99 19.94 20.08
9/29/2020 15:00 to 14:10 20.07 19.94 19.74 19.68 19.74 19.77
9/29/2020 14:00 to 13:10 19.48 19.61 19.81 19.81 19.84 19.86
9/29/2020 13:00 to 12:10 19.73 19.63 19.53 19.74 19.60 19.64
9/29/2020 12:00 to 11:10 19.65 19.58 19.67 19.55 19.43 19.46
9/29/2020 11:00 to 10:10 19.78 19.47 19.57 19.76 19.64 19.35
9/29/2020 10:00 to 9:10 19.02 19.07 19.28 19.40 19.55 19.44
9/29/2020 09:00 to 8:10 19.43 19.51 19.54 19.77 19.72 19.72
9/29/2020 08:00 to 7:10 19.94 19.66 19.81 19.53 19.57 19.53
9/29/2020 07:00 to 6:10 19.80 19.85 19.49 19.73 19.64 19.84
9/29/2020 06:00 to 5:10 19.95 20.01 20.10 19.98 19.95 19.94
9/29/2020 05:00 to 4:10 19.80 19.93 19.89 19.85 19.66 19.75
9/29/2020 04:00 to 3:10 19.73 19.85 19.82 19.81 19.91 19.90
9/29/2020 03:00 to 2:10 19.88 19.71 19.61 19.64 19.62 19.53
9/29/2020 02:00 to 1:10 19.39 19.40 19.33 19.18 19.07 19.07
9/29/2020 01:00 to 0:10 19.07 19.10 19.40 19.39 19.46 19.37